Harrow, Ontario

9:19 AM EDT on May 24, 2017 (GMT -0400)
Harrow

Weather History for CXHA - May, 2013

Change the Weather History Date:

Tuesday, May 14, 2013

  Actual Average (CYQG) Record (CYQG)
Temperature  
Mean Temperature 54 °F -  
Max Temperature 68 °F 65 °F 82 °F (1998)
Min Temperature 40 °F 48 °F 36 °F (2015)
Degree Days  
Heating Degree Days 11    
Growing Degree Days 4 (Base 50)    
Moisture  
Dew Point 41 °F    
Average Humidity 56    
Maximum Humidity 73    
Minimum Humidity 38    
Precipitation  
Precipitation 0.00 in - - ()
Sea Level Pressure  
Sea Level Pressure 29.94 in    
Wind  
Wind Speed 8 mph ()    
Max Wind Speed 17 mph    
Max Gust Speed 22 mph    
Averages and records for this station are not official NWS values.
T = Trace of Precipitation, MM = Missing Value Source: Averaged Metar Reports

Daily Weather History Graph

Daily Weather History Graph

Search for Another Location

Airport or City:

Trip Planner

Search our weather history database for the weather conditions in past years. The results will help you decide how hot, cold, wet, or windy it might be!

Date:

Astronomy

May. 14, 2013 Rise Set
Actual Time 6:11 AM EDT 8:44 PM EDT
Civil Twilight 5:39 AM EDT 9:16 PM EDT
Nautical Twilight 5:00 AM EDT 9:56 PM EDT
Astronomical Twilight 4:15 AM EDT 10:41 PM EDT
Moon 9:50 AM EDT (5/14) No Moon Set
Length of Visible Light 15h 36m
Length of Day
14h 32m
Waxing Crescent, 19% of the Moon is Illuminated
May 14
Waxing Crescent
May 18
First Quarter
May 25
Full
May 31
Last Quarter
Jun 8
New

Hourly Weather History & Observations

Time (EDT) Temp. Windchill Dew Point Humidity Pressure Visibility Wind Dir Wind Speed Gust Speed Precip Events Conditions
12:00 AM 44.6 °F 42.2 °F 31.6 °F 60% 30.12 in - South 4.6 mph - N/A   Unknown
1:00 AM 44.4 °F 41.2 °F 32.9 °F 64% 30.12 in - South 5.8 mph - N/A   Unknown
2:00 AM 47 °F - 29 °F 38% 30.10 in - South 9.2 mph - -  
2:00 AM 46.9 °F - 29.3 °F 50% 30.10 in - South 9.2 mph - N/A   Unknown
3:00 AM 47.3 °F - 32.9 °F 57% 30.08 in - South 10.4 mph - N/A   Unknown
4:00 AM 47.8 °F - 36.3 °F 64% 30.07 in - South 9.2 mph - N/A   Unknown
5:00 AM 48.6 °F - 36.1 °F 62% 30.08 in - SSW 6.9 mph - N/A   Unknown
6:00 AM 49.1 °F - 36.0 °F 61% 30.07 in - SSW 6.9 mph - N/A   Unknown
7:00 AM 49.5 °F - 36.5 °F 61% 30.07 in - SSW 6.9 mph - N/A   Unknown
8:00 AM 51 °F - 37 °F 49% 30.05 in - South 12.7 mph - -  
8:00 AM 50.9 °F - 37.4 °F 60% 30.05 in - South 12.7 mph - N/A   Unknown
9:00 AM 52.2 °F - 37.6 °F 58% 30.02 in - South 16.1 mph 21.9 mph N/A   Unknown
10:00 AM 55.0 °F - 38.3 °F 53% 30.00 in - South 17.3 mph - N/A   Unknown
11:00 AM 56.1 °F - 40.1 °F 55% 29.95 in - South 16.1 mph 21.9 mph N/A   Unknown
12:00 PM 59.0 °F - 40.1 °F 50% 29.94 in - South 16.1 mph - N/A   Unknown
1:00 PM 61.3 °F - 40.6 °F 47% 29.90 in - SSE 15.0 mph 20.7 mph N/A   Unknown
2:00 PM 64.8 °F - 40.5 °F 41% 29.88 in - SSE 15.0 mph - N/A   Unknown
3:00 PM 64.9 °F - 43.7 °F 46% 29.84 in - SE 10.4 mph 17.3 mph N/A   Unknown
4:00 PM 66.2 °F - 46.4 °F 49% 29.82 in - SSE 9.2 mph - N/A   Unknown
5:00 PM 66.7 °F - 46.0 °F 47% 29.81 in - SSE 9.2 mph - N/A   Unknown
6:00 PM 63.9 °F - 47.1 °F 54% 29.78 in - SE 8.1 mph - N/A   Unknown
7:00 PM 62.2 °F - 48.7 °F 61% 29.75 in - SE 5.8 mph - N/A   Unknown
8:00 PM 63 °F - 50 °F 54% 29.75 in - East 2.3 mph - -  
8:00 PM 63.3 °F - 50.4 °F 63% 29.75 in - East 2.3 mph - N/A   Unknown
9:00 PM 60.1 °F - 50.0 °F 69% 29.74 in - SE 4.6 mph - N/A   Unknown
10:00 PM 59.2 °F - 50.5 °F 73% 29.74 in - SE 3.5 mph - N/A   Unknown
11:00 PM 60.8 °F - 49.1 °F 65% 29.71 in - SE 8.1 mph - N/A   Unknown